Regional Weather Roundup
Issued by NWS

Home | Current Version | Previous Version | Graphics & Text | Print | Product List | Glossary On
Versions: 1 2 3 4 5 6 7 8 9 10 11 12 13 14 15 16 17 18 19 20 21 22 23 24 25 26 27 28 29 30 31 32 33 34 35 36 37 38 39 40 41 42 43 44 45 46 47 48 49 50
000
ASUS43 KOAX 030402
RWRNE

WEATHER ROUNDUP FOR NEBRASKA
NATIONAL WEATHER SERVICE OMAHA NE
1100 PM CDT WED SEP 02 2015

NOTES: SATELLITE DATA IS BEING USED TO AUGMENT CLOUD COVER ABOVE
       12000 FEET.
       "FAIR" INDICATES FEW OR NO CLOUDS BELOW 12,000 FEET WITH NO
       SIGNIFICANT WEATHER AND/OR OBSTRUCTIONS TO VISIBILITY.

  * THESE STATIONS DO NOT REPORT WEATHER SUCH AS RAIN...SNOW OR FOG.

NEZ001>004-019>022-054>056-030500-
NEBRASKA PANHANDLE

CITY           SKY/WX    TMP DP  RH WIND       PRES   REMARKS
SCOTTSBLUFF    CLEAR     71  54  54 E3        29.92R
ALLIANCE       CLEAR     66  48  52 S7        29.91R
CHADRON        CLEAR     74  43  32 S9        29.83R
KIMBALL        PTCLDY    67  44  43 S8        29.99S
SIDNEY         PTCLDY    66  42  41 S5        29.96S
$$

NEZ057>060-069>072-079>082-030500-
SOUTHWEST NEBRASKA

CITY           SKY/WX    TMP DP  RH WIND       PRES   REMARKS
NORTH PLATTE   CLEAR     69  64  84 E8        29.87S
IMPERIAL       CLEAR     74  56  53 CALM      29.88S
LEXINGTON      CLEAR     72  66  80 E3        29.85S
MCCOOK         PTCLDY    77  61  57 E8        29.84S
$$

NEZ005>010-023>029-035>040-094-030500-
NORTH CENTRAL NEBRASKA

CITY           SKY/WX    TMP DP  RH WIND       PRES   REMARKS
VALENTINE      CLEAR     81  58  45 S10       29.83R
AINSWORTH      PTCLDY    76  61  58 S10       29.85S
BROKEN BOW     CLEAR     67  63  87 NE3       29.87S
ORD            CLEAR     69  65  86 CALM      29.85R
$$

NEZ041-046>049-061>064-073>077-083>087-030500-
SOUTH CENTRAL NEBRASKA

CITY           SKY/WX    TMP DP  RH WIND       PRES   REMARKS
GRAND ISLAND   CLEAR     75  66  73 SE7       29.86S
AURORA         CLEAR     73  68  86 SE7       29.86S
HASTINGS       CLEAR     82  62  50 S10       29.85S
HEBRON         CLEAR     81  63  54 S13G18    29.87R
HOLDREGE       CLEAR     74  62  66 SE8       29.85S
KEARNEY *      CLEAR     75  63  64 SE7       29.85S
YORK           CLEAR     77  68  73 S7        29.87S
$$

NEZ011>018-030>034-042>045-030500-
NORTHEAST NEBRASKA

CITY           SKY/WX    TMP DP  RH WIND       PRES   REMARKS
NORFOLK        CLEAR     73  71  93 SE7       29.85R
ALBION         CLEAR     72  67  86 SE3       29.86S
BLAIR          CLEAR     78  68  71 S12       29.88S
COLUMBUS *     CLEAR     73  66  78 E3        29.86S
FREMONT        CLEAR     80  68  67 SE9       29.87S
TEKAMAH        CLEAR     73  72  96 S5        29.85S
$$

NEZ050>053-065>068-078-088>093-030500-
SOUTHEAST NEBRASKA

CITY           SKY/WX    TMP DP  RH WIND       PRES   REMARKS
LINCOLN        CLEAR     78  67  68 S7        29.86S
OMAHA EPPLEY   PTCLDY    81  69  67 S14       29.87S
BEATRICE       CLEAR     79  66  64 S10       29.88R
FALLS CITY     CLEAR     79  69  71 S10       29.90S
NEBRASKA CITY  CLEAR     76  67  73 S10       29.89S
PLATTSMOUTH    CLEAR     77  67  71 S9        29.89S
$$

NEZ044-045-051>053-067-030500-
OMAHA AREA

CITY           SKY/WX    TMP DP  RH WIND       PRES   REMARKS
OMAHA EPPLEY   PTCLDY    81  69  67 S14       29.87S
BLAIR          CLEAR     78  68  71 S12       29.88S
FREMONT        CLEAR     80  68  67 SE9       29.87S
OFFUTT AFB     CLEAR     78  69  74 SE8       29.87S
PLATTSMOUTH    CLEAR     77  67  71 S9        29.89S
WAHOO          FAIR      74  70  88 SE5       29.87S
$$




USA.gov is the U.S. government's official web portal to all federal, state and local government web resources and services.